Time,TemperatureF,DewpointF,PressureIn,WindDirection,WindDirectionDegrees,WindSpeedMPH,WindSpeedGustMPH,Humidity,HourlyPrecipIn,Conditions,Clouds,dailyrainin,SoftwareType,DateUTC
2013-02-19 00:00:00,26.4,21.7,29.84,ESE,104,0.0,0.0,82,0.00,OVC,,0.01,WeatherDisplay:10.37,2013-02-19 05:00:00,
2013-02-19 00:01:00,26.5,21.7,29.84,ESE,104,0.0,0.0,82,0.00,RA,,0.00,WeatherDisplay:10.37,2013-02-19 05:01:00,
2013-02-19 00:06:00,26.7,21.9,29.84,ESE,103,0.0,0.0,82,0.00,RA,,0.00,WeatherDisplay:10.37,2013-02-19 05:06:00,
2013-02-19 00:11:00,27.0,22.5,29.84,ESE,103,0.0,0.0,83,0.00,OVC,,0.00,WeatherDisplay:10.37,2013-02-19 05:11:00,
2013-02-19 00:16:00,27.2,22.7,29.84,ESE,104,0.0,0.0,83,0.00,OVC,,0.00,WeatherDisplay:10.37,2013-02-19 05:16:00,
2013-02-19 00:21:00,27.4,22.9,29.83,ESE,104,0.0,0.0,83,0.00,OVC,,0.00,WeatherDisplay:10.37,2013-02-19 05:21:00,
2013-02-19 00:26:00,27.6,22.8,29.83,ESE,103,0.0,0.0,82,0.00,OVC,,0.00,WeatherDisplay:10.37,2013-02-19 05:26:00,
2013-02-19 00:31:00,27.8,23.0,29.83,ESE,104,0.0,0.0,82,0.00,OVC,,0.00,WeatherDisplay:10.37,2013-02-19 05:31:00,
2013-02-19 00:36:00,28.0,23.2,29.83,ESE,103,0.0,0.0,82,0.00,OVC,,0.00,WeatherDisplay:10.37,2013-02-19 05:36:00,
2013-02-19 00:41:00,28.1,23.3,29.82,ESE,104,0.2,0.0,82,0.00,OVC,,0.00,WeatherDisplay:10.37,2013-02-19 05:41:00,
2013-02-19 00:46:00,28.1,23.3,29.82,ESE,103,0.0,0.0,82,0.00,OVC,,0.00,WeatherDisplay:10.37,2013-02-19 05:46:00,
2013-02-19 00:51:00,28.1,23.3,29.82,ESE,103,0.0,0.0,82,0.00,OVC,,0.00,WeatherDisplay:10.37,2013-02-19 05:51:00,
2013-02-19 00:56:00,28.1,23.3,29.81,ESE,103,0.4,1.2,82,0.00,OVC,,0.00,WeatherDisplay:10.37,2013-02-19 05:56:00,
2013-02-19 01:01:00,28.2,23.4,29.81,ESE,104,0.0,0.0,82,0.00,BKN,,0.00,WeatherDisplay:10.37,2013-02-19 06:01:00,
2013-02-19 01:06:00,28.3,23.8,29.81,ESE,104,0.0,0.0,83,0.00,BKN,,0.00,WeatherDisplay:10.37,2013-02-19 06:06:00,
2013-02-19 01:11:00,28.4,23.6,29.81,ESE,103,0.0,0.0,82,0.00,BKN,,0.00,WeatherDisplay:10.37,2013-02-19 06:11:00,
2013-02-19 01:16:00,28.6,24.1,29.80,ESE,104,0.0,0.0,83,0.00,BKN,,0.00,WeatherDisplay:10.37,2013-02-19 06:16:00,
2013-02-19 01:21:00,28.8,24.3,29.80,ESE,104,0.0,0.0,83,0.00,BKN,,0.00,WeatherDisplay:10.37,2013-02-19 06:21:00,
2013-02-19 01:26:00,29.1,24.6,29.80,ESE,104,0.0,0.0,83,0.00,BKN,,0.00,WeatherDisplay:10.37,2013-02-19 06:26:00,
2013-02-19 01:31:00,29.2,24.7,29.80,ESE,104,0.0,0.0,83,0.00,BKN,,0.00,WeatherDisplay:10.37,2013-02-19 06:31:00,
2013-02-19 01:36:00,29.4,24.9,29.80,ESE,104,0.0,0.0,83,0.00,BKN,,0.00,WeatherDisplay:10.37,2013-02-19 06:36:00,
2013-02-19 01:41:00,29.7,25.2,29.80,ESE,103,0.0,1.2,83,0.00,BKN,,0.00,WeatherDisplay:10.37,2013-02-19 06:41:00,
2013-02-19 01:46:00,29.8,25.3,29.79,ESE,104,0.1,1.2,83,0.00,BKN,,0.00,WeatherDisplay:10.37,2013-02-19 06:46:00,
2013-02-19 01:51:00,30.0,25.2,29.80,ESE,103,0.0,0.0,82,0.00,BKN,,0.00,WeatherDisplay:10.37,2013-02-19 06:51:00,
2013-02-19 01:56:00,30.1,25.3,29.79,ESE,104,0.0,0.0,82,0.00,BKN,,0.00,WeatherDisplay:10.37,2013-02-19 06:56:00,
2013-02-19 02:01:00,30.2,25.4,29.79,ESE,104,0.0,1.2,82,0.00,OVC,,0.00,WeatherDisplay:10.37,2013-02-19 07:01:00,
2013-02-19 02:06:00,30.2,25.7,29.78,ESE,103,0.2,1.2,83,0.00,OVC,,0.00,WeatherDisplay:10.37,2013-02-19 07:06:00,
2013-02-19 02:11:00,30.3,25.8,29.79,ESE,104,0.3,2.3,83,0.00,OVC,,0.00,WeatherDisplay:10.37,2013-02-19 07:11:00,
2013-02-19 02:16:00,30.4,25.6,29.78,ESE,104,0.3,2.3,82,0.00,OVC,,0.00,WeatherDisplay:10.37,2013-02-19 07:16:00,
2013-02-19 02:21:00,30.6,25.8,29.78,ESE,104,0.0,1.2,82,0.00,OVC,,0.00,WeatherDisplay:10.37,2013-02-19 07:21:00,
2013-02-19 02:26:00,30.7,25.9,29.78,ESE,105,0.0,3.5,82,0.00,OVC,,0.00,WeatherDisplay:10.37,2013-02-19 07:26:00,
2013-02-19 02:31:00,30.9,26.3,29.78,ESE,105,0.0,1.0,83,0.00,OVC,,0.00,WeatherDisplay:10.37,2013-02-19 07:31:00,
2013-02-19 02:36:00,31.0,26.1,29.77,ESE,116,0.0,0.0,82,0.00,OVC,,0.00,WeatherDisplay:10.37,2013-02-19 07:36:00,
2013-02-19 02:41:00,31.1,26.2,29.76,SE,129,0.6,1.0,82,0.00,OVC,,0.00,WeatherDisplay:10.37,2013-02-19 07:41:00,
2013-02-19 02:47:00,31.1,26.0,29.76,SE,129,0.0,1.2,81,0.00,OVC,,0.00,WeatherDisplay:10.37,2013-02-19 07:47:00,
2013-02-19 02:51:00,31.1,26.0,29.76,SE,129,0.4,0.0,81,0.00,OVC,,0.00,WeatherDisplay:10.37,2013-02-19 07:51:00,
2013-02-19 02:57:00,31.0,25.9,29.75,SE,129,0.0,1.2,81,0.00,OVC,,0.00,WeatherDisplay:10.37,2013-02-19 07:57:00,
2013-02-19 03:02:00,30.9,25.8,29.75,SE,137,0.0,3.5,81,0.00,SCT,,0.00,WeatherDisplay:10.37,2013-02-19 08:02:00,
2013-02-19 03:07:00,30.8,25.7,29.75,SE,136,0.4,1.2,81,0.00,SCT,,0.00,WeatherDisplay:10.37,2013-02-19 08:07:00,
2013-02-19 03:12:00,30.8,26.0,29.74,SE,136,0.0,0.0,82,0.00,SCT,,0.00,WeatherDisplay:10.37,2013-02-19 08:12:00,
2013-02-19 03:17:00,30.9,26.1,29.74,SE,136,0.0,1.2,82,0.00,SCT,,0.00,WeatherDisplay:10.37,2013-02-19 08:17:00,
2013-02-19 03:22:00,30.8,25.7,29.73,SE,136,0.0,0.0,81,0.00,SCT,,0.00,WeatherDisplay:10.37,2013-02-19 08:22:00,
2013-02-19 03:27:00,30.7,25.9,29.73,SE,129,1.0,3.0,82,0.00,SCT,,0.00,WeatherDisplay:10.37,2013-02-19 08:27:00,
2013-02-19 03:32:00,30.6,25.8,29.72,SE,126,0.0,3.5,82,0.00,SCT,,0.00,WeatherDisplay:10.37,2013-02-19 08:32:00,
2013-02-19 03:37:00,30.7,25.9,29.72,SE,126,1.0,2.0,82,0.00,SCT,,0.00,WeatherDisplay:10.37,2013-02-19 08:37:00,
2013-02-19 03:42:00,30.7,25.9,29.72,SE,126,1.0,3.0,82,0.00,SCT,,0.00,WeatherDisplay:10.37,2013-02-19 08:42:00,
2013-02-19 03:47:00,31.0,26.4,29.72,ESE,114,1.6,3.5,83,0.00,SCT,,0.00,WeatherDisplay:10.37,2013-02-19 08:47:00,
2013-02-19 03:52:00,31.9,27.6,29.71,SE,125,2.0,7.0,84,0.00,SCT,,0.00,WeatherDisplay:10.37,2013-02-19 08:52:00,
2013-02-19 03:57:00,32.9,27.7,29.71,SE,136,0.7,0.0,81,0.00,SCT,,0.00,WeatherDisplay:10.37,2013-02-19 08:57:00,
2013-02-19 04:02:00,33.7,28.2,29.71,SE,140,0.1,3.5,80,0.00,CLR,,0.00,WeatherDisplay:10.37,2013-02-19 09:02:00,
2013-02-19 04:07:00,34.1,28.0,29.71,SE,137,0.7,3.5,78,0.00,CLR,,0.00,WeatherDisplay:10.37,2013-02-19 09:07:00,
2013-02-19 04:12:00,34.4,27.9,29.71,SE,141,1.0,5.0,77,0.00,CLR,,0.00,WeatherDisplay:10.37,2013-02-19 09:12:00,
2013-02-19 04:17:00,34.4,27.6,29.71,SE,141,0.7,4.0,76,0.00,CLR,,0.00,WeatherDisplay:10.37,2013-02-19 09:17:00,
2013-02-19 04:22:00,34.4,27.6,29.71,SE,144,1.0,4.0,76,0.00,CLR,,0.00,WeatherDisplay:10.37,2013-02-19 09:22:00,
2013-02-19 04:27:00,34.4,27.3,29.70,SSE,148,0.0,0.0,75,0.00,CLR,,0.00,WeatherDisplay:10.37,2013-02-19 09:27:00,
2013-02-19 04:32:00,34.5,27.4,29.70,SE,138,0.5,3.5,75,0.00,CLR,,0.00,WeatherDisplay:10.37,2013-02-19 09:32:00,
2013-02-19 04:37:00,34.9,27.4,29.70,SE,133,2.0,7.0,74,0.00,CLR,,0.00,WeatherDisplay:10.37,2013-02-19 09:37:00,
2013-02-19 04:42:00,35.6,27.8,29.69,ESE,115,0.7,2.3,73,0.00,CLR,,0.00,WeatherDisplay:10.37,2013-02-19 09:42:00,
2013-02-19 04:47:00,36.1,27.9,29.69,ESE,120,1.9,2.3,72,0.00,CLR,,0.00,WeatherDisplay:10.37,2013-02-19 09:47:00,
2013-02-19 04:52:00,36.5,28.0,29.69,ESE,115,0.0,0.0,71,0.00,CLR,,0.00,WeatherDisplay:10.37,2013-02-19 09:52:00,
2013-02-19 04:57:00,36.8,27.6,29.69,SE,125,0.7,3.5,69,0.00,CLR,,0.00,WeatherDisplay:10.37,2013-02-19 09:57:00,
2013-02-19 05:02:00,37.0,27.8,29.69,SE,125,0.1,3.5,69,0.00,FEW,,0.00,WeatherDisplay:10.37,2013-02-19 10:02:00,
2013-02-19 05:07:00,37.1,27.5,29.69,SE,142,3.4,3.5,68,0.00,FEW,,0.00,WeatherDisplay:10.37,2013-02-19 10:07:00,
2013-02-19 05:12:00,37.6,27.6,29.68,SSE,151,1.0,4.0,67,0.00,FEW,,0.00,WeatherDisplay:10.37,2013-02-19 10:12:00,
2013-02-19 05:17:00,38.2,27.4,29.68,SSE,162,2.0,5.0,65,0.00,FEW,,0.00,WeatherDisplay:10.37,2013-02-19 10:17:00,
2013-02-19 05:22:00,38.6,27.5,29.68,SSE,153,0.0,3.0,64,0.00,FEW,,0.00,WeatherDisplay:10.37,2013-02-19 10:22:00,
2013-02-19 05:27:00,38.8,27.7,29.67,SSE,156,0.0,2.3,64,0.00,FEW,,0.00,WeatherDisplay:10.37,2013-02-19 10:27:00,
2013-02-19 05:32:00,38.8,27.3,29.68,South,188,2.0,6.0,63,0.00,FEW,,0.00,WeatherDisplay:10.37,2013-02-19 10:32:00,
2013-02-19 05:37:00,39.1,27.5,29.68,SW,225,3.0,5.0,63,0.00,FEW,,0.00,WeatherDisplay:10.37,2013-02-19 10:37:00,
2013-02-19 05:42:00,39.1,27.2,29.68,SW,221,0.0,4.0,62,0.00,FEW,,0.00,WeatherDisplay:10.37,2013-02-19 10:42:00,
2013-02-19 05:47:00,39.4,27.8,29.67,SSE,153,5.0,7.0,63,0.00,FEW,,0.00,WeatherDisplay:10.37,2013-02-19 10:47:00,
2013-02-19 05:52:00,40.2,30.1,29.67,SSW,200,9.9,18.4,67,0.00,FEW,,0.00,WeatherDisplay:10.37,2013-02-19 10:52:00,
2013-02-19 05:57:00,40.6,30.5,29.67,SSW,209,5.0,9.2,67,0.00,FEW,,0.00,WeatherDisplay:10.37,2013-02-19 10:57:00,
2013-02-19 06:02:00,40.8,32.5,29.67,SSW,193,6.9,11.5,72,0.00,-RA,,0.00,WeatherDisplay:10.37,2013-02-19 11:02:00,
2013-02-19 06:07:00,40.7,34.0,29.66,SSE,167,7.4,10.4,77,0.00,-RA,,0.00,WeatherDisplay:10.37,2013-02-19 11:07:00,
2013-02-19 06:12:00,40.3,34.3,29.66,SSE,150,5.1,12.7,79,0.00,-RA,,0.00,WeatherDisplay:10.37,2013-02-19 11:12:00,
2013-02-19 06:17:00,40.0,34.6,29.65,South,180,3.3,4.6,81,0.01,-RA,,0.01,WeatherDisplay:10.37,2013-02-19 11:17:00,
2013-02-19 06:22:00,39.7,34.7,29.65,South,184,0.6,2.3,82,0.01,-RA,,0.01,WeatherDisplay:10.37,2013-02-19 11:22:00,
2013-02-19 06:27:00,39.4,35.0,29.65,South,180,1.3,4.6,84,0.02,-RA,,0.02,WeatherDisplay:10.37,2013-02-19 11:27:00,
2013-02-19 06:32:00,39.2,34.8,29.65,South,173,1.3,8.1,84,0.03,-RA,,0.03,WeatherDisplay:10.37,2013-02-19 11:32:00,
2013-02-19 06:37:00,39.0,34.9,29.65,South,173,0.7,2.3,85,0.04,-RA,,0.04,WeatherDisplay:10.37,2013-02-19 11:37:00,
2013-02-19 06:42:00,38.8,35.0,29.65,South,173,0.0,0.0,86,0.05,-RA,,0.05,WeatherDisplay:10.37,2013-02-19 11:42:00,
2013-02-19 06:47:00,38.6,34.8,29.65,SSW,199,1.2,3.5,86,0.07,-RA,,0.07,WeatherDisplay:10.37,2013-02-19 11:47:00,
2013-02-19 06:52:00,38.4,34.9,29.65,South,180,0.2,2.3,87,0.08,-RA,,0.08,WeatherDisplay:10.37,2013-02-19 11:52:00,
2013-02-19 06:57:00,38.2,35.0,29.63,SE,146,1.9,5.0,88,0.10,-RA,,0.10,WeatherDisplay:10.37,2013-02-19 11:57:00,
2013-02-19 07:02:00,38.2,35.0,29.63,SSE,153,0.5,3.5,88,0.12,RA,,0.12,WeatherDisplay:10.37,2013-02-19 12:02:00,
2013-02-19 07:07:00,38.1,34.9,29.63,SE,142,0.4,1.2,88,0.14,RA,,0.14,WeatherDisplay:10.37,2013-02-19 12:07:00,
2013-02-19 07:12:00,38.1,35.1,29.63,SSE,164,2.8,4.6,89,0.16,RA,,0.16,WeatherDisplay:10.37,2013-02-19 12:12:00,
2013-02-19 07:17:00,38.2,35.2,29.62,SSE,161,1.4,3.5,89,0.17,RA,,0.18,WeatherDisplay:10.37,2013-02-19 12:17:00,
2013-02-19 07:22:00,38.3,35.6,29.62,South,175,2.0,5.8,90,0.18,RA,,0.19,WeatherDisplay:10.37,2013-02-19 12:22:00,
2013-02-19 07:27:00,38.4,35.7,29.62,South,171,3.2,5.8,90,0.19,RA,,0.21,WeatherDisplay:10.37,2013-02-19 12:27:00,
2013-02-19 07:32:00,38.8,36.1,29.62,South,189,3.5,9.2,90,0.20,RA,,0.22,WeatherDisplay:10.37,2013-02-19 12:32:00,
2013-02-19 07:37:00,39.3,36.9,29.62,SSW,206,6.1,12.7,91,0.20,RA,,0.23,WeatherDisplay:10.37,2013-02-19 12:37:00,
2013-02-19 07:42:00,39.6,37.2,29.62,SSW,198,4.1,10.4,91,0.20,RA,,0.25,WeatherDisplay:10.37,2013-02-19 12:42:00,
2013-02-19 07:47:00,39.8,37.4,29.62,South,169,4.5,6.9,91,0.20,RA,,0.26,WeatherDisplay:10.37,2013-02-19 12:47:00,
2013-02-19 07:52:00,39.9,37.5,29.61,South,172,6.2,9.2,91,0.20,RA,,0.28,WeatherDisplay:10.37,2013-02-19 12:52:00,
2013-02-19 07:57:00,40.0,37.6,29.61,South,182,6.6,12.7,91,0.19,RA,,0.28,WeatherDisplay:10.37,2013-02-19 12:57:00,
2013-02-19 08:02:00,40.1,37.7,29.61,South,183,5.4,11.5,91,0.17,RA,,0.29,WeatherDisplay:10.37,2013-02-19 13:02:00,
2013-02-19 08:07:00,40.2,37.8,29.60,SSW,203,9.3,12.7,91,0.16,RA,,0.30,WeatherDisplay:10.37,2013-02-19 13:07:00,
2013-02-19 08:12:00,40.2,37.8,29.60,South,180,5.7,10.4,91,0.16,RA,,0.31,WeatherDisplay:10.37,2013-02-19 13:12:00,
2013-02-19 08:17:00,40.1,37.7,29.60,South,179,7.2,10.4,91,0.15,RA,,0.32,WeatherDisplay:10.37,2013-02-19 13:17:00,
2013-02-19 08:22:00,40.0,37.6,29.60,South,188,8.1,15.0,91,0.14,RA,,0.33,WeatherDisplay:10.37,2013-02-19 13:22:00,
2013-02-19 08:27:00,40.1,37.7,29.59,South,182,8.8,12.7,91,0.12,RA,,0.33,WeatherDisplay:10.37,2013-02-19 13:27:00,
2013-02-19 08:32:00,40.1,37.4,29.59,SE,133,10.7,16.1,90,0.12,RA,,0.35,WeatherDisplay:10.37,2013-02-19 13:32:00,
2013-02-19 08:37:00,40.0,37.3,29.58,South,180,7.5,11.5,90,0.12,RA,,0.35,WeatherDisplay:10.37,2013-02-19 13:37:00,
2013-02-19 08:42:00,39.9,37.2,29.58,South,182,6.8,12.7,90,0.11,RA,,0.36,WeatherDisplay:10.37,2013-02-19 13:42:00,
2013-02-19 08:47:00,39.8,37.1,29.58,South,183,4.5,11.5,90,0.10,RA,,0.36,WeatherDisplay:10.37,2013-02-19 13:47:00,
2013-02-19 08:52:00,39.8,37.1,29.58,SE,142,5.9,11.5,90,0.10,RA,,0.37,WeatherDisplay:10.37,2013-02-19 13:52:00,
2013-02-19 08:57:00,39.8,37.1,29.58,SSE,161,5.7,10.4,90,0.09,RA,,0.37,WeatherDisplay:10.37,2013-02-19 13:57:00,
2013-02-19 09:02:00,39.8,37.1,29.57,South,187,6.1,11.5,90,0.08,-RA,,0.37,WeatherDisplay:10.37,2013-02-19 14:02:00,
2013-02-19 09:07:00,39.8,37.1,29.57,SSE,147,7.2,11.5,90,0.08,-RA,,0.38,WeatherDisplay:10.37,2013-02-19 14:07:00,
2013-02-19 09:12:00,39.9,37.2,29.57,SSW,211,10.8,13.8,90,0.07,-RA,,0.38,WeatherDisplay:10.37,2013-02-19 14:12:00,
2013-02-19 09:17:00,40.2,37.5,29.57,South,188,7.6,15.0,90,0.06,-RA,,0.38,WeatherDisplay:10.37,2013-02-19 14:17:00,
2013-02-19 09:22:00,40.2,37.2,29.57,SSW,211,5.0,11.5,89,0.06,-RA,,0.39,WeatherDisplay:10.37,2013-02-19 14:22:00,
2013-02-19 09:27:00,40.2,37.2,29.56,SSE,157,6.5,12.7,89,0.06,-RA,,0.39,WeatherDisplay:10.37,2013-02-19 14:27:00,
2013-02-19 09:32:00,40.3,37.3,29.56,South,184,5.1,16.1,89,0.06,-RA,,0.40,WeatherDisplay:10.37,2013-02-19 14:32:00,
2013-02-19 09:37:00,40.4,37.4,29.55,South,186,8.5,12.7,89,0.05,-RA,,0.40,WeatherDisplay:10.37,2013-02-19 14:37:00,
2013-02-19 09:42:00,40.4,37.4,29.55,SSW,213,9.5,13.8,89,0.05,-RA,,0.41,WeatherDisplay:10.37,2013-02-19 14:42:00,
2013-02-19 09:47:00,40.5,37.5,29.55,SSW,195,3.5,11.5,89,0.05,-RA,,0.41,WeatherDisplay:10.37,2013-02-19 14:47:00,
2013-02-19 09:53:00,40.6,37.6,29.55,South,185,7.6,19.6,89,0.05,-RA,,0.41,WeatherDisplay:10.37,2013-02-19 14:53:00,
2013-02-19 09:58:00,40.7,37.7,29.55,SW,233,7.0,16.1,89,0.04,-RA,,0.41,WeatherDisplay:10.37,2013-02-19 14:58:00,
2013-02-19 10:03:00,40.7,37.4,29.55,SSW,198,4.8,10.4,88,0.04,-RA,,0.41,WeatherDisplay:10.37,2013-02-19 15:03:00,
2013-02-19 10:08:00,41.0,37.7,29.54,SSW,196,6.8,19.6,88,0.03,-RA,,0.41,WeatherDisplay:10.37,2013-02-19 15:08:00,
2013-02-19 10:13:00,41.1,37.8,29.54,SSE,161,8.2,17.3,88,0.03,-RA,,0.41,WeatherDisplay:10.37,2013-02-19 15:13:00,
2013-02-19 10:18:00,41.3,37.7,29.54,South,191,6.6,14.0,87,0.03,-RA,,0.41,WeatherDisplay:10.37,2013-02-19 15:18:00,
2013-02-19 10:23:00,41.3,37.4,29.54,ESE,119,5.9,11.5,86,0.03,-RA,,0.41,WeatherDisplay:10.37,2013-02-19 15:23:00,
2013-02-19 10:28:00,41.2,37.3,29.54,South,170,5.4,11.5,86,0.02,-RA,,0.41,WeatherDisplay:10.37,2013-02-19 15:28:00,
2013-02-19 10:31:00,27.1,20.5,29.70,SW,233,18.0,28.0,76,0.00,RA,,0.43,WeatherDisplay:10.37,2013-02-19 15:31:00,
2013-02-19 10:32:00,27.1,20.5,29.70,SW,234,13.0,24.0,76,0.00,RA,,0.43,WeatherDisplay:10.37,2013-02-19 15:32:00,
2013-02-19 10:33:00,41.2,37.6,29.54,SSE,148,6.0,15.0,87,0.01,-RA,,0.41,WeatherDisplay:10.37,2013-02-19 15:33:00,
2013-02-19 10:34:00,27.0,20.4,29.70,WSW,240,16.0,24.0,76,0.00,RA,,0.43,WeatherDisplay:10.37,2013-02-19 15:34:00,
2013-02-19 10:35:00,27.0,20.4,29.70,WSW,240,18.0,27.0,76,0.00,RA,,0.43,WeatherDisplay:10.37,2013-02-19 15:35:00,
2013-02-19 10:36:00,27.0,20.4,29.70,WSW,245,12.0,19.0,76,0.00,RA,,0.43,WeatherDisplay:10.37,2013-02-19 15:36:00,
2013-02-19 10:37:00,27.0,20.4,29.70,WSW,247,12.0,20.0,76,0.00,RA,,0.43,WeatherDisplay:10.37,2013-02-19 15:37:00,
2013-02-19 10:38:00,41.2,37.6,29.54,South,181,6.2,11.5,87,0.01,-RA,,0.41,WeatherDisplay:10.37,2013-02-19 15:38:00,
2013-02-19 10:43:00,41.4,37.8,29.53,SSW,201,7.9,13.8,87,0.00,-RA,,0.41,WeatherDisplay:10.37,2013-02-19 15:43:00,
2013-02-19 10:48:00,41.5,37.9,29.53,South,169,8.3,13.8,87,0.00,-RA,,0.41,WeatherDisplay:10.37,2013-02-19 15:48:00,
2013-02-19 10:53:00,41.6,37.7,29.52,South,188,7.0,12.0,86,0.00,-RA,,0.41,WeatherDisplay:10.37,2013-02-19 15:53:00,
2013-02-19 10:58:00,41.7,37.8,29.52,SSW,196,7.0,12.0,86,0.00,-RA,,0.41,WeatherDisplay:10.37,2013-02-19 15:58:00,
2013-02-19 11:03:00,41.8,37.9,29.52,South,190,8.4,10.4,86,0.00,-RA,,0.41,WeatherDisplay:10.37,2013-02-19 16:03:00,
2013-02-19 11:08:00,42.1,37.9,29.52,South,179,11.1,19.6,85,0.00,-RA,,0.41,WeatherDisplay:10.37,2013-02-19 16:08:00,
2013-02-19 11:13:00,42.3,37.8,29.52,South,189,8.0,21.0,84,0.00,-RA,,0.41,WeatherDisplay:10.37,2013-02-19 16:13:00,
2013-02-19 11:18:00,42.4,37.6,29.52,South,173,5.3,13.8,83,0.00,-RA,,0.41,WeatherDisplay:10.37,2013-02-19 16:18:00,
2013-02-19 11:23:00,42.4,37.6,29.52,SSW,199,15.0,26.0,83,0.01,-RA,,0.42,WeatherDisplay:10.37,2013-02-19 16:23:00,
2013-02-19 11:28:00,42.3,37.5,29.52,SSW,192,13.8,19.6,83,0.01,-RA,,0.42,WeatherDisplay:10.37,2013-02-19 16:28:00,
2013-02-19 11:33:00,42.0,37.5,29.53,SW,216,9.4,21.9,84,0.01,-RA,,0.42,WeatherDisplay:10.37,2013-02-19 16:33:00,
2013-02-19 11:38:00,41.2,36.7,29.54,West,273,14.4,20.7,84,0.01,-RA,,0.42,WeatherDisplay:10.37,2013-02-19 16:38:00,
2013-02-19 11:43:00,40.0,35.8,29.55,SW,227,8.0,10.0,85,0.00,-RA,,0.42,WeatherDisplay:10.37,2013-02-19 16:43:00,
2013-02-19 11:48:00,38.9,35.1,29.55,WSW,242,13.0,16.0,86,0.00,-RA,,0.42,WeatherDisplay:10.37,2013-02-19 16:48:00,
2013-02-19 11:53:00,37.8,34.2,29.55,SW,233,15.0,20.0,87,0.00,-RA,,0.42,WeatherDisplay:10.37,2013-02-19 16:53:00,
2013-02-19 11:58:00,37.2,34.0,29.55,SW,227,11.1,13.8,88,0.01,-RA,,0.42,WeatherDisplay:10.37,2013-02-19 16:58:00,
2013-02-19 12:03:00,36.7,33.8,29.55,SW,232,10.5,12.7,89,0.01,-RA,,0.42,WeatherDisplay:10.37,2013-02-19 17:03:00,
2013-02-19 12:08:00,36.3,33.4,29.55,SW,227,10.1,19.6,89,0.01,-RA,,0.42,WeatherDisplay:10.37,2013-02-19 17:08:00,
2013-02-19 12:13:00,35.9,33.3,29.55,SW,227,9.0,16.0,90,0.00,-RA,,0.42,WeatherDisplay:10.37,2013-02-19 17:13:00,
2013-02-19 12:18:00,35.7,33.1,29.55,SW,219,13.0,25.0,90,0.00,-RA,,0.42,WeatherDisplay:10.37,2013-02-19 17:18:00,
2013-02-19 12:23:00,35.4,32.8,29.55,SW,225,11.2,21.9,90,0.02,-RA,,0.43,WeatherDisplay:10.37,2013-02-19 17:23:00,
2013-02-19 12:28:00,35.4,32.8,29.55,WSW,242,7.5,21.9,90,0.01,-RA,,0.43,WeatherDisplay:10.37,2013-02-19 17:28:00,
2013-02-19 12:33:00,35.2,32.6,29.55,SW,217,13.0,21.0,90,0.00,-RA,,0.43,WeatherDisplay:10.37,2013-02-19 17:33:00,
2013-02-19 12:38:00,35.1,32.4,29.55,SW,221,14.0,21.0,90,0.00,-RA,,0.43,WeatherDisplay:10.37,2013-02-19 17:38:00,
2013-02-19 12:43:00,34.8,32.2,29.55,SSW,212,10.0,13.0,90,0.00,-RA,,0.43,WeatherDisplay:10.37,2013-02-19 17:43:00,
2013-02-19 12:48:00,34.7,32.1,29.55,SW,224,9.6,17.0,90,0.01,-RA,,0.43,WeatherDisplay:10.37,2013-02-19 17:48:00,
2013-02-19 12:53:00,34.5,32.1,29.54,West,269,14.0,23.0,91,0.01,-SN,,0.43,WeatherDisplay:10.37,2013-02-19 17:53:00,
2013-02-19 12:58:00,34.6,32.2,29.55,SW,229,13.0,18.0,91,0.00,-SN,,0.43,WeatherDisplay:10.37,2013-02-19 17:58:00,
2013-02-19 13:03:00,34.4,32.0,29.55,SSW,202,14.0,23.0,91,0.01,-SN,,0.43,WeatherDisplay:10.37,2013-02-19 18:03:00,
2013-02-19 13:08:00,34.4,32.0,29.55,SW,221,15.6,23.0,91,0.01,-SN,,0.43,WeatherDisplay:10.37,2013-02-19 18:08:00,
2013-02-19 13:13:00,34.1,31.5,29.55,SW,228,20.0,28.0,90,0.00,-SN,,0.43,WeatherDisplay:10.37,2013-02-19 18:13:00,
2013-02-19 13:18:00,33.7,31.1,29.55,SW,229,14.0,17.0,90,0.00,-SN,,0.43,WeatherDisplay:10.37,2013-02-19 18:18:00,
2013-02-19 13:23:00,33.4,30.8,29.56,SW,217,14.6,17.3,90,0.01,-SN,,0.43,WeatherDisplay:10.37,2013-02-19 18:23:00,
2013-02-19 13:28:00,33.1,30.5,29.56,WSW,242,14.0,20.7,90,0.00,-SN,,0.43,WeatherDisplay:10.37,2013-02-19 18:28:00,
2013-02-19 13:33:00,33.1,30.5,29.56,WSW,241,7.5,11.5,90,0.00,OVC,,0.43,WeatherDisplay:10.37,2013-02-19 18:33:00,
2013-02-19 13:38:00,33.1,30.5,29.56,SW,231,10.0,22.0,90,0.00,OVC,,0.43,WeatherDisplay:10.37,2013-02-19 18:38:00,
2013-02-19 13:43:00,33.1,30.2,29.56,SW,225,6.3,12.7,89,0.00,OVC,,0.43,WeatherDisplay:10.37,2013-02-19 18:43:00,
2013-02-19 13:48:00,33.1,29.9,29.57,SW,223,16.0,25.0,88,0.00,OVC,,0.43,WeatherDisplay:10.37,2013-02-19 18:48:00,
2013-02-19 13:53:00,32.9,29.4,29.57,SW,229,13.0,26.0,87,0.00,OVC,,0.43,WeatherDisplay:10.37,2013-02-19 18:53:00,
2013-02-19 13:58:00,32.6,28.6,29.57,SSW,195,11.9,25.3,85,0.00,OVC,,0.43,WeatherDisplay:10.37,2013-02-19 18:58:00,
2013-02-19 14:03:00,32.5,28.5,29.57,SW,218,13.2,19.6,85,0.00,BKN,,0.43,WeatherDisplay:10.37,2013-02-19 19:03:00,
2013-02-19 14:08:00,32.4,28.4,29.58,SW,229,14.2,23.0,85,0.00,BKN,,0.43,WeatherDisplay:10.37,2013-02-19 19:08:00,
2013-02-19 14:13:00,32.2,28.0,29.58,WSW,237,14.0,21.0,84,0.00,BKN,,0.43,WeatherDisplay:10.37,2013-02-19 19:13:00,
2013-02-19 14:18:00,32.1,28.1,29.57,SW,214,14.0,17.3,85,0.00,BKN,,0.43,WeatherDisplay:10.37,2013-02-19 19:18:00,
2013-02-19 14:23:00,31.9,27.6,29.58,WSW,238,16.4,23.0,84,0.00,BKN,,0.43,WeatherDisplay:10.37,2013-02-19 19:23:00,
2013-02-19 14:28:00,31.6,27.0,29.57,WSW,240,20.2,20.2,83,0.00,BKN,,0.43,WeatherDisplay:10.37,2013-02-19 19:28:00,
2013-02-19 14:33:00,31.6,27.0,29.58,SW,236,16.6,19.6,83,0.00,BKN,,0.43,WeatherDisplay:10.37,2013-02-19 19:33:00,
2013-02-19 14:38:00,31.8,26.9,29.58,SW,236,16.0,20.0,82,0.00,BKN,,0.43,WeatherDisplay:10.37,2013-02-19 19:38:00,
2013-02-19 14:43:00,31.9,26.4,29.58,SW,234,20.3,27.6,80,0.00,BKN,,0.43,WeatherDisplay:10.37,2013-02-19 19:43:00,
2013-02-19 14:48:00,31.8,26.0,29.58,SW,235,14.3,21.9,79,0.00,BKN,,0.43,WeatherDisplay:10.37,2013-02-19 19:48:00,
2013-02-19 14:53:00,31.4,24.7,29.59,SW,235,22.0,26.0,76,0.00,BKN,,0.43,WeatherDisplay:10.37,2013-02-19 19:53:00,
2013-02-19 14:58:00,31.2,24.8,29.59,SW,234,14.1,19.6,77,0.00,BKN,,0.43,WeatherDisplay:10.37,2013-02-19 19:58:00,
2013-02-19 15:03:00,31.2,24.5,29.59,SW,234,18.3,33.4,76,0.00,SCT,,0.43,WeatherDisplay:10.37,2013-02-19 20:03:00,
2013-02-19 15:08:00,31.1,24.7,29.59,SW,235,16.9,26.5,77,0.00,SCT,,0.43,WeatherDisplay:10.37,2013-02-19 20:08:00,
2013-02-19 15:13:00,31.0,24.6,29.59,SW,235,14.0,23.0,77,0.00,SCT,,0.43,WeatherDisplay:10.37,2013-02-19 20:13:00,
2013-02-19 15:18:00,31.0,24.6,29.59,SW,235,16.8,17.3,77,0.00,SCT,,0.43,WeatherDisplay:10.37,2013-02-19 20:18:00,
2013-02-19 15:23:00,31.0,24.0,29.60,SW,234,20.0,25.0,75,0.00,SCT,,0.43,WeatherDisplay:10.37,2013-02-19 20:23:00,
2013-02-19 15:28:00,31.0,24.0,29.60,SW,234,15.0,16.1,75,0.00,SCT,,0.43,WeatherDisplay:10.37,2013-02-19 20:28:00,
2013-02-19 15:33:00,30.9,23.9,29.60,SW,235,20.0,32.0,75,0.00,SCT,,0.43,WeatherDisplay:10.37,2013-02-19 20:33:00,
2013-02-19 15:38:00,30.6,23.0,29.61,SW,234,18.1,26.5,73,0.00,SCT,,0.43,WeatherDisplay:10.37,2013-02-19 20:38:00,
2013-02-19 15:43:00,30.4,22.8,29.62,SW,234,14.5,21.9,73,0.00,SCT,,0.43,WeatherDisplay:10.37,2013-02-19 20:43:00,
2013-02-19 15:48:00,30.1,22.2,29.62,SW,235,14.0,17.0,72,0.00,SCT,,0.43,WeatherDisplay:10.37,2013-02-19 20:48:00,
2013-02-19 15:53:00,30.1,22.2,29.62,SW,235,17.0,23.0,72,0.00,SCT,,0.43,WeatherDisplay:10.37,2013-02-19 20:53:00,
2013-02-19 15:58:00,30.0,22.1,29.62,SW,234,14.6,27.6,72,0.00,SCT,,0.43,WeatherDisplay:10.37,2013-02-19 20:58:00,
2013-02-19 16:03:00,30.0,22.1,29.62,SW,235,18.2,24.2,72,0.00,BKN,,0.43,WeatherDisplay:10.37,2013-02-19 21:03:00,
2013-02-19 16:08:00,30.0,21.7,29.63,SW,235,15.5,24.2,71,0.00,BKN,,0.43,WeatherDisplay:10.37,2013-02-19 21:08:00,
2013-02-19 16:13:00,30.0,22.1,29.63,SW,234,11.4,16.1,72,0.00,BKN,,0.43,WeatherDisplay:10.37,2013-02-19 21:13:00,
2013-02-19 16:18:00,30.0,22.4,29.63,SW,234,12.9,19.6,73,0.00,BKN,,0.43,WeatherDisplay:10.37,2013-02-19 21:18:00,
2013-02-19 16:23:00,30.0,22.4,29.63,SW,235,13.1,16.1,73,0.00,BKN,,0.43,WeatherDisplay:10.37,2013-02-19 21:23:00,
2013-02-19 16:28:00,30.1,22.5,29.63,SW,235,14.7,20.7,73,0.00,BKN,,0.43,WeatherDisplay:10.37,2013-02-19 21:28:00,
2013-02-19 16:33:00,30.1,22.8,29.64,SW,234,15.8,23.0,74,0.00,BKN,,0.43,WeatherDisplay:10.37,2013-02-19 21:33:00,
2013-02-19 16:38:00,30.1,22.8,29.64,SW,235,18.0,26.5,74,0.00,BKN,,0.43,WeatherDisplay:10.37,2013-02-19 21:38:00,
2013-02-19 16:43:00,30.2,23.5,29.65,SW,234,17.2,24.2,76,0.00,-SN,,0.43,WeatherDisplay:10.37,2013-02-19 21:43:00,
2013-02-19 16:48:00,30.1,23.8,29.64,SW,235,19.5,26.5,77,0.00,-SN,,0.43,WeatherDisplay:10.37,2013-02-19 21:48:00,
2013-02-19 16:53:00,29.9,23.6,29.65,West,259,21.2,31.1,77,0.00,-SN,,0.43,WeatherDisplay:10.37,2013-02-19 21:53:00,
2013-02-19 16:58:00,29.7,23.4,29.65,WSW,250,14.5,19.6,77,0.00,-SN,,0.43,WeatherDisplay:10.37,2013-02-19 21:58:00,
2013-02-19 17:03:00,29.5,23.2,29.65,SW,215,11.5,16.1,77,0.00,-SN,,0.43,WeatherDisplay:10.37,2013-02-19 22:03:00,
2013-02-19 17:08:00,29.4,23.1,29.64,WSW,240,17.1,26.5,77,0.00,-SN,,0.43,WeatherDisplay:10.37,2013-02-19 22:08:00,
2013-02-19 17:13:00,29.3,23.0,29.64,SW,235,18.5,26.5,77,0.00,-SN,,0.43,WeatherDisplay:10.37,2013-02-19 22:13:00,
2013-02-19 17:18:00,29.1,22.8,29.65,SW,236,19.9,28.8,77,0.00,-SN,,0.43,WeatherDisplay:10.37,2013-02-19 22:18:00,
2013-02-19 17:23:00,29.0,22.7,29.65,West,263,12.9,23.0,77,0.00,-SN,,0.43,WeatherDisplay:10.37,2013-02-19 22:23:00,
2013-02-19 17:28:00,28.9,22.6,29.65,SW,215,11.5,25.3,77,0.00,-SN,,0.43,WeatherDisplay:10.37,2013-02-19 22:28:00,
2013-02-19 17:33:00,28.8,22.8,29.66,WSW,246,11.6,21.9,78,0.00,-SN,,0.43,WeatherDisplay:10.37,2013-02-19 22:33:00,
2013-02-19 17:38:00,28.7,22.4,29.66,WSW,240,17.1,21.9,77,0.00,-SN,,0.43,WeatherDisplay:10.37,2013-02-19 22:38:00,
2013-02-19 17:43:00,28.6,22.3,29.66,WSW,240,15.1,24.2,77,0.00,-SN,,0.43,WeatherDisplay:10.37,2013-02-19 22:43:00,
2013-02-19 17:48:00,28.4,21.8,29.66,SSW,209,11.9,21.9,76,0.00,-SN,,0.43,WeatherDisplay:10.37,2013-02-19 22:48:00,
2013-02-19 17:53:00,28.3,21.7,29.66,SSW,210,13.9,21.9,76,0.00,BKN,,0.43,WeatherDisplay:10.37,2013-02-19 22:53:00,
2013-02-19 17:58:00,28.1,21.5,29.66,WSW,240,14.3,26.5,76,0.00,BKN,,0.43,WeatherDisplay:10.37,2013-02-19 22:58:00,
2013-02-19 18:03:00,28.1,21.8,29.67,WSW,238,13.1,18.4,77,0.00,BKN,,0.43,WeatherDisplay:10.37,2013-02-19 23:03:00,
2013-02-19 18:08:00,28.0,22.0,29.67,SW,234,13.8,20.7,78,0.00,BKN,,0.43,WeatherDisplay:10.37,2013-02-19 23:08:00,
2013-02-19 18:13:00,28.0,22.3,29.67,SW,216,10.3,18.4,79,0.00,BKN,,0.43,WeatherDisplay:10.37,2013-02-19 23:13:00,
2013-02-19 18:18:00,28.0,22.3,29.67,West,265,11.9,19.6,79,0.00,BKN,,0.43,WeatherDisplay:10.37,2013-02-19 23:18:00,
2013-02-19 18:23:00,28.0,22.3,29.67,SW,225,14.1,17.3,79,0.00,-SN,,0.43,WeatherDisplay:10.37,2013-02-19 23:23:00,
2013-02-19 18:28:00,28.0,22.3,29.67,WSW,254,17.8,20.7,79,0.00,-SN,,0.43,WeatherDisplay:10.37,2013-02-19 23:28:00,
2013-02-19 18:33:00,28.1,22.1,29.68,WSW,245,17.2,24.2,78,0.00,-SN,,0.43,WeatherDisplay:10.37,2013-02-19 23:33:00,
2013-02-19 18:38:00,28.0,22.0,29.68,SW,214,20.1,27.6,78,0.00,-SN,,0.43,WeatherDisplay:10.37,2013-02-19 23:38:00,
2013-02-19 18:43:00,27.9,22.2,29.68,SW,236,13.4,20.0,79,0.00,-SN,,0.43,WeatherDisplay:10.37,2013-02-19 23:43:00,
2013-02-19 18:48:00,27.7,22.3,29.69,SW,229,13.6,24.2,80,0.00,-SN,,0.43,WeatherDisplay:10.37,2013-02-19 23:48:00,
2013-02-19 18:53:00,27.6,22.2,29.69,WSW,257,16.2,19.6,80,0.00,-SN,,0.43,WeatherDisplay:10.37,2013-02-19 23:53:00,
2013-02-19 18:58:00,27.4,22.0,29.69,SW,230,13.4,19.6,80,0.00,-SN,,0.43,WeatherDisplay:10.37,2013-02-19 23:58:00,
2013-02-19 19:01:00,20.7,15.2,29.79,WSW,247,8.0,11.0,79,0.00,CLR,,0.00,WeatherDisplay:10.37,2013-02-20 00:01:00,
2013-02-19 19:03:00,27.4,22.0,29.69,South,188,12.3,12.7,80,0.00,-SN,,0.43,WeatherDisplay:10.37,2013-02-20 00:03:00,
2013-02-19 19:08:00,27.4,21.7,29.69,WSW,248,10.9,15.0,79,0.00,-SN,,0.43,WeatherDisplay:10.37,2013-02-20 00:08:00,
2013-02-19 19:10:00,20.4,15.5,29.80,West,259,9.0,20.0,81,0.00,CLR,,0.00,WeatherDisplay:10.37,2013-02-20 00:10:00,
2013-02-19 19:11:00,20.3,15.7,29.80,West,262,9.0,13.0,82,0.00,CLR,,0.00,WeatherDisplay:10.37,2013-02-20 00:11:00,
2013-02-19 19:12:00,20.3,15.7,29.80,WSW,258,8.0,13.0,82,0.00,CLR,,0.00,WeatherDisplay:10.37,2013-02-20 00:12:00,
2013-02-19 19:13:00,27.4,21.4,29.70,SW,219,11.1,21.9,78,0.00,-SN,,0.43,WeatherDisplay:10.37,2013-02-20 00:13:00,
2013-02-19 19:14:00,20.2,15.6,29.80,WSW,254,10.0,13.0,82,0.00,CLR,,0.00,WeatherDisplay:10.37,2013-02-20 00:14:00,
2013-02-19 19:15:00,20.2,15.9,29.80,WSW,252,12.0,16.0,83,0.00,CLR,,0.00,WeatherDisplay:10.37,2013-02-20 00:15:00,
2013-02-19 19:16:00,20.2,15.9,29.80,WSW,249,13.0,21.0,83,0.00,CLR,,0.00,WeatherDisplay:10.37,2013-02-20 00:16:00,
2013-02-19 19:17:00,20.2,15.9,29.80,WSW,246,14.0,22.0,83,0.00,CLR,,0.00,WeatherDisplay:10.37,2013-02-20 00:17:00,
2013-02-19 19:18:00,27.3,21.3,29.69,SW,216,13.5,15.0,78,0.00,-SN,,0.43,WeatherDisplay:10.37,2013-02-20 00:18:00,
2013-02-19 19:19:00,20.1,15.8,29.80,WSW,246,9.0,11.0,83,0.00,CLR,,0.00,WeatherDisplay:10.37,2013-02-20 00:19:00,
2013-02-19 19:20:00,20.1,16.0,29.80,WSW,246,6.0,9.0,84,0.00,CLR,,0.00,WeatherDisplay:10.37,2013-02-20 00:20:00,
2013-02-19 19:21:00,20.1,16.0,29.80,WSW,244,12.0,17.0,84,0.00,CLR,,0.00,WeatherDisplay:10.37,2013-02-20 00:21:00,
2013-02-19 19:22:00,20.1,16.0,29.80,WSW,246,12.0,19.0,84,0.00,CLR,,0.00,WeatherDisplay:10.37,2013-02-20 00:22:00,
2013-02-19 19:23:00,27.2,20.9,29.70,SSW,200,14.7,20.7,77,0.00,OVC,,0.43,WeatherDisplay:10.37,2013-02-20 00:23:00,
2013-02-19 19:24:00,20.2,16.1,29.80,WSW,244,7.0,9.0,84,0.00,CLR,,0.00,WeatherDisplay:10.37,2013-02-20 00:24:00,
2013-02-19 19:25:00,20.2,16.1,29.80,WSW,244,9.0,12.0,84,0.00,CLR,,0.00,WeatherDisplay:10.37,2013-02-20 00:25:00,
2013-02-19 19:26:00,20.2,16.1,29.80,WSW,244,10.0,18.0,84,0.00,CLR,,0.00,WeatherDisplay:10.37,2013-02-20 00:26:00,
2013-02-19 19:27:00,20.2,16.1,29.80,WSW,244,8.0,12.0,84,0.00,CLR,,0.00,WeatherDisplay:10.37,2013-02-20 00:27:00,
2013-02-19 19:28:00,27.2,20.6,29.70,WSW,250,16.3,32.2,76,0.00,OVC,,0.43,WeatherDisplay:10.37,2013-02-20 00:28:00,
2013-02-19 19:29:00,20.2,16.1,29.80,WSW,246,12.0,19.0,84,0.00,CLR,,0.00,WeatherDisplay:10.37,2013-02-20 00:29:00,
2013-02-19 19:30:00,20.2,16.1,29.80,WSW,246,12.0,16.0,84,0.00,CLR,,0.00,WeatherDisplay:10.37,2013-02-20 00:30:00,
2013-02-19 19:31:00,20.2,16.1,29.80,WSW,244,12.0,14.0,84,0.00,CLR,,0.00,WeatherDisplay:10.37,2013-02-20 00:31:00,
2013-02-19 19:32:00,20.2,16.1,29.80,WSW,244,8.0,10.0,84,0.00,CLR,,0.00,WeatherDisplay:10.37,2013-02-20 00:32:00,
2013-02-19 19:33:00,20.2,16.1,29.80,WSW,244,8.0,13.0,84,0.00,CLR,,0.00,WeatherDisplay:10.37,2013-02-20 00:33:00,
2013-02-19 19:34:00,20.2,16.1,29.80,WSW,243,12.0,15.0,84,0.00,CLR,,0.00,WeatherDisplay:10.37,2013-02-20 00:34:00,
2013-02-19 19:35:00,20.2,16.1,29.80,WSW,243,10.0,14.0,84,0.00,CLR,,0.00,WeatherDisplay:10.37,2013-02-20 00:35:00,
2013-02-19 19:36:00,20.2,16.1,29.80,WSW,243,10.0,12.0,84,0.00,CLR,,0.00,WeatherDisplay:10.37,2013-02-20 00:36:00,
2013-02-19 19:37:00,20.2,15.9,29.80,WSW,245,12.0,17.0,83,0.00,CLR,,0.00,WeatherDisplay:10.37,2013-02-20 00:37:00,
2013-02-19 19:38:00,20.2,15.9,29.80,WSW,240,10.0,14.0,83,0.00,CLR,,0.00,WeatherDisplay:10.37,2013-02-20 00:38:00,
2013-02-19 19:39:00,20.2,15.9,29.80,WSW,240,13.0,17.0,83,0.00,CLR,,0.00,WeatherDisplay:10.37,2013-02-20 00:39:00,
2013-02-19 19:40:00,26.9,20.3,29.71,WSW,240,16.4,19.6,76,0.00,RA,,0.43,WeatherDisplay:10.37,2013-02-20 00:40:00,
2013-02-19 19:41:00,20.2,15.9,29.80,WSW,243,10.0,18.0,83,0.00,CLR,,0.00,WeatherDisplay:10.37,2013-02-20 00:41:00,
2013-02-19 19:42:00,20.2,15.9,29.80,WSW,240,10.0,14.0,83,0.00,CLR,,0.00,WeatherDisplay:10.37,2013-02-20 00:42:00,
2013-02-19 19:43:00,20.2,15.9,29.80,WSW,241,12.0,17.0,83,0.00,CLR,,0.00,WeatherDisplay:10.37,2013-02-20 00:43:00,
2013-02-19 19:44:00,20.2,15.9,29.80,WSW,243,12.0,18.0,83,0.00,CLR,,0.00,WeatherDisplay:10.37,2013-02-20 00:44:00,
2013-02-19 19:45:00,26.8,19.9,29.70,SW,222,15.6,20.7,75,0.00,OVC,,0.43,WeatherDisplay:10.37,2013-02-20 00:45:00,
2013-02-19 19:46:00,20.2,15.9,29.80,WSW,243,9.0,12.0,83,0.00,CLR,,0.00,WeatherDisplay:10.37,2013-02-20 00:46:00,
2013-02-19 19:47:00,20.2,15.9,29.80,WSW,239,7.0,11.0,83,0.00,CLR,,0.00,WeatherDisplay:10.37,2013-02-20 00:47:00,
2013-02-19 19:48:00,20.2,15.9,29.80,WSW,239,9.0,16.0,83,0.00,CLR,,0.00,WeatherDisplay:10.37,2013-02-20 00:48:00,
2013-02-19 19:49:00,20.2,15.6,29.80,WSW,242,10.0,16.0,82,0.00,CLR,,0.00,WeatherDisplay:10.37,2013-02-20 00:49:00,
2013-02-19 19:50:00,26.6,19.4,29.70,SW,223,14.7,23.0,74,0.00,OVC,,0.43,WeatherDisplay:10.37,2013-02-20 00:50:00,
2013-02-19 19:51:00,20.2,15.6,29.80,WSW,239,12.0,17.0,82,0.00,CLR,,0.00,WeatherDisplay:10.37,2013-02-20 00:51:00,
2013-02-19 19:52:00,20.2,15.6,29.80,WSW,242,9.0,12.0,82,0.00,CLR,,0.00,WeatherDisplay:10.37,2013-02-20 00:52:00,
2013-02-19 19:53:00,20.2,15.6,29.80,WSW,239,12.0,17.0,82,0.00,CLR,,0.00,WeatherDisplay:10.37,2013-02-20 00:53:00,
2013-02-19 19:54:00,20.2,15.6,29.81,WSW,242,12.0,17.0,82,0.00,CLR,,0.00,WeatherDisplay:10.37,2013-02-20 00:54:00,
2013-02-19 19:55:00,26.5,19.6,29.71,WSW,240,11.7,19.6,75,0.00,OVC,,0.43,WeatherDisplay:10.37,2013-02-20 00:55:00,
2013-02-19 19:56:00,20.1,15.5,29.81,WSW,244,9.0,15.0,82,0.00,CLR,,0.00,WeatherDisplay:10.37,2013-02-20 00:56:00,
2013-02-19 19:57:00,20.1,15.5,29.81,WSW,245,10.0,15.0,82,0.00,CLR,,0.00,WeatherDisplay:10.37,2013-02-20 00:57:00,
2013-02-19 19:58:00,20.1,15.8,29.81,WSW,247,7.0,9.0,83,0.00,CLR,,0.00,WeatherDisplay:10.37,2013-02-20 00:58:00,
2013-02-19 19:59:00,20.1,15.5,29.81,WSW,247,7.0,10.0,82,0.00,CLR,,0.00,WeatherDisplay:10.37,2013-02-20 00:59:00,
2013-02-19 20:00:00,26.3,19.8,29.71,SW,228,15.4,19.6,76,0.00,OVC,,0.43,WeatherDisplay:10.37,2013-02-20 01:00:00,
2013-02-19 20:01:00,20.1,15.8,29.80,WSW,255,12.0,16.0,83,0.00,CLR,,0.00,WeatherDisplay:10.37,2013-02-20 01:01:00,
2013-02-19 20:05:00,26.2,20.3,29.71,SSW,205,15.8,17.3,78,0.00,BKN,,0.43,WeatherDisplay:10.37,2013-02-20 01:05:00,
2013-02-19 20:10:00,26.3,20.1,29.71,WSW,240,13.0,21.9,77,0.00,BKN,,0.43,WeatherDisplay:10.37,2013-02-20 01:10:00,
2013-02-19 20:11:00,20.0,15.7,29.81,WSW,251,9.0,15.0,83,0.00,CLR,,0.00,WeatherDisplay:10.37,2013-02-20 01:11:00,
2013-02-19 20:12:00,19.9,15.8,29.81,WSW,248,9.0,13.0,84,0.00,CLR,,0.00,WeatherDisplay:10.37,2013-02-20 01:12:00,
2013-02-19 20:13:00,19.9,15.8,29.81,WSW,248,12.0,14.0,84,0.00,CLR,,0.00,WeatherDisplay:10.37,2013-02-20 01:13:00,
2013-02-19 20:14:00,19.9,15.8,29.81,WSW,248,7.0,12.0,84,0.00,CLR,,0.00,WeatherDisplay:10.37,2013-02-20 01:14:00,
2013-02-19 20:15:00,26.2,20.0,29.72,SW,218,10.6,16.1,77,0.00,BKN,,0.43,WeatherDisplay:10.37,2013-02-20 01:15:00,
2013-02-19 20:16:00,19.9,15.8,29.81,WSW,249,8.0,11.0,84,0.00,CLR,,0.00,WeatherDisplay:10.37,2013-02-20 01:16:00,
2013-02-19 20:17:00,19.9,15.8,29.81,WSW,249,7.0,8.0,84,0.00,CLR,,0.00,WeatherDisplay:10.37,2013-02-20 01:17:00,
2013-02-19 20:18:00,19.9,15.8,29.81,WSW,246,7.0,12.0,84,0.00,CLR,,0.00,WeatherDisplay:10.37,2013-02-20 01:18:00,
2013-02-19 20:19:00,19.9,15.8,29.81,WSW,244,9.0,13.0,84,0.00,CLR,,0.00,WeatherDisplay:10.37,2013-02-20 01:19:00,
2013-02-19 20:20:00,26.2,19.7,29.72,SSW,207,11.4,16.1,76,0.00,BKN,,0.43,WeatherDisplay:10.37,2013-02-20 01:20:00,
2013-02-19 20:21:00,19.9,16.1,29.81,WSW,244,10.0,14.0,85,0.00,CLR,,0.00,WeatherDisplay:10.37,2013-02-20 01:21:00,
2013-02-19 20:22:00,19.8,16.0,29.81,WSW,241,12.0,16.0,85,0.00,CLR,,0.00,WeatherDisplay:10.37,2013-02-20 01:22:00,
2013-02-19 20:23:00,19.8,16.0,29.81,WSW,241,8.0,11.0,85,0.00,CLR,,0.00,WeatherDisplay:10.37,2013-02-20 01:23:00,
2013-02-19 20:24:00,19.8,16.0,29.81,WSW,243,9.0,16.0,85,0.00,CLR,,0.00,WeatherDisplay:10.37,2013-02-20 01:24:00,
2013-02-19 20:25:00,26.0,18.8,29.72,SW,221,13.3,23.0,74,0.00,BKN,,0.43,WeatherDisplay:10.37,2013-02-20 01:25:00,
2013-02-19 20:26:00,19.8,16.0,29.81,WSW,245,10.0,13.0,85,0.00,CLR,,0.00,WeatherDisplay:10.37,2013-02-20 01:26:00,
2013-02-19 20:27:00,19.7,15.9,29.81,WSW,243,8.0,12.0,85,0.00,CLR,,0.00,WeatherDisplay:10.37,2013-02-20 01:27:00,
2013-02-19 20:28:00,19.7,16.2,29.81,WSW,243,10.0,12.0,86,0.00,CLR,,0.00,WeatherDisplay:10.37,2013-02-20 01:28:00,
2013-02-19 20:29:00,19.7,16.2,29.81,WSW,245,9.0,13.0,86,0.00,CLR,,0.00,WeatherDisplay:10.37,2013-02-20 01:29:00,
2013-02-19 20:30:00,25.8,18.3,29.72,SW,224,13.1,27.6,73,0.00,BKN,,0.43,WeatherDisplay:10.37,2013-02-20 01:30:00,
2013-02-19 20:31:00,19.7,16.2,29.81,WSW,243,9.0,13.0,86,0.00,CLR,,0.00,WeatherDisplay:10.37,2013-02-20 01:31:00,
2013-02-19 20:32:00,19.7,16.2,29.81,WSW,246,7.0,10.0,86,0.00,CLR,,0.00,WeatherDisplay:10.37,2013-02-20 01:32:00,
2013-02-19 20:33:00,19.7,16.2,29.81,WSW,246,9.0,13.0,86,0.00,CLR,,0.00,WeatherDisplay:10.37,2013-02-20 01:33:00,
2013-02-19 20:34:00,19.7,16.2,29.81,WSW,244,8.0,11.0,86,0.00,CLR,,0.00,WeatherDisplay:10.37,2013-02-20 01:34:00,
2013-02-19 20:35:00,25.7,18.2,29.72,WSW,237,13.8,17.3,73,0.00,BKN,,0.43,WeatherDisplay:10.37,2013-02-20 01:35:00,
2013-02-19 20:36:00,19.7,16.2,29.81,WSW,244,14.0,17.0,86,0.00,CLR,,0.00,WeatherDisplay:10.37,2013-02-20 01:36:00,
2013-02-19 20:37:00,19.7,16.5,29.81,WSW,246,9.0,14.0,87,0.00,CLR,,0.00,WeatherDisplay:10.37,2013-02-20 01:37:00,
2013-02-19 20:38:00,19.7,16.2,29.81,WSW,246,9.0,13.0,86,0.00,CLR,,0.00,WeatherDisplay:10.37,2013-02-20 01:38:00,
2013-02-19 20:39:00,19.7,16.5,29.81,WSW,246,15.0,20.0,87,0.00,CLR,,0.00,WeatherDisplay:10.37,2013-02-20 01:39:00,
2013-02-19 20:40:00,25.6,18.5,29.73,SW,232,12.2,19.6,74,0.00,BKN,,0.43,WeatherDisplay:10.37,2013-02-20 01:40:00,
2013-02-19 20:41:00,19.7,16.5,29.81,WSW,248,8.0,12.0,87,0.00,CLR,,0.00,WeatherDisplay:10.37,2013-02-20 01:41:00,
2013-02-19 20:42:00,19.7,16.5,29.81,WSW,248,6.0,11.0,87,0.00,CLR,,0.00,WeatherDisplay:10.37,2013-02-20 01:42:00,
2013-02-19 20:43:00,19.7,16.5,29.82,WSW,247,5.0,9.0,87,0.00,CLR,,0.00,WeatherDisplay:10.37,2013-02-20 01:43:00,
2013-02-19 20:44:00,19.7,16.5,29.81,WSW,247,12.0,19.0,87,0.00,CLR,,0.00,WeatherDisplay:10.37,2013-02-20 01:44:00,
2013-02-19 20:45:00,25.5,18.4,29.73,West,260,15.1,19.6,74,0.00,BKN,,0.43,WeatherDisplay:10.37,2013-02-20 01:45:00,
2013-02-19 20:46:00,19.7,16.5,29.82,WSW,245,8.0,11.0,87,0.00,CLR,,0.00,WeatherDisplay:10.37,2013-02-20 01:46:00,
2013-02-19 20:47:00,19.7,16.5,29.82,WSW,245,9.0,13.0,87,0.00,CLR,,0.00,WeatherDisplay:10.37,2013-02-20 01:47:00,
2013-02-19 20:48:00,19.7,16.5,29.81,WSW,245,12.0,17.0,87,0.00,CLR,,0.00,WeatherDisplay:10.37,2013-02-20 01:48:00,
2013-02-19 20:49:00,19.7,16.5,29.81,WSW,243,9.0,12.0,87,0.00,CLR,,0.00,WeatherDisplay:10.37,2013-02-20 01:49:00,
2013-02-19 20:50:00,25.5,19.0,29.73,SW,236,13.3,18.4,76,0.00,BKN,,0.43,WeatherDisplay:10.37,2013-02-20 01:50:00,
2013-02-19 20:51:00,19.7,16.5,29.82,WSW,239,6.0,9.0,87,0.00,CLR,,0.00,WeatherDisplay:10.37,2013-02-20 01:51:00,
2013-02-19 20:52:00,19.7,16.5,29.82,WSW,239,9.0,13.0,87,0.00,CLR,,0.00,WeatherDisplay:10.37,2013-02-20 01:52:00,
2013-02-19 20:53:00,19.7,16.5,29.82,WSW,241,10.0,15.0,87,0.00,CLR,,0.00,WeatherDisplay:10.37,2013-02-20 01:53:00,
2013-02-19 20:54:00,19.7,16.5,29.82,WSW,240,6.0,8.0,87,0.00,CLR,,0.00,WeatherDisplay:10.37,2013-02-20 01:54:00,
2013-02-19 20:55:00,25.4,18.9,29.73,WSW,250,13.0,20.7,76,0.00,BKN,,0.43,WeatherDisplay:10.37,2013-02-20 01:55:00,
2013-02-19 20:56:00,19.7,16.7,29.82,WSW,240,6.0,10.0,88,0.00,CLR,,0.00,WeatherDisplay:10.37,2013-02-20 01:56:00,
2013-02-19 20:57:00,19.7,16.7,29.82,WSW,239,7.0,10.0,88,0.00,CLR,,0.00,WeatherDisplay:10.37,2013-02-20 01:57:00,
2013-02-19 20:58:00,19.7,16.7,29.82,WSW,239,9.0,13.0,88,0.00,CLR,,0.00,WeatherDisplay:10.37,2013-02-20 01:58:00,
2013-02-19 20:59:00,19.7,16.7,29.82,WSW,242,13.0,21.0,88,0.00,CLR,,0.00,WeatherDisplay:10.37,2013-02-20 01:59:00,
2013-02-19 21:00:00,25.3,18.8,29.73,SW,229,11.2,25.3,76,0.00,BKN,,0.43,WeatherDisplay:10.37,2013-02-20 02:00:00,
2013-02-19 21:01:00,19.7,16.7,29.82,WSW,244,8.0,12.0,88,0.00,CLR,,0.00,WeatherDisplay:10.37,2013-02-20 02:01:00,
2013-02-19 21:05:00,25.3,18.8,29.74,SW,217,10.6,21.9,76,0.00,BKN,,0.43,WeatherDisplay:10.37,2013-02-20 02:05:00,
2013-02-19 21:10:00,25.3,18.8,29.73,WSW,252,7.9,13.8,76,0.00,BKN,,0.43,WeatherDisplay:10.37,2013-02-20 02:10:00,
2013-02-19 21:11:00,19.7,16.7,29.82,WSW,242,10.0,14.0,88,0.00,CLR,,0.00,WeatherDisplay:10.37,2013-02-20 02:11:00,
2013-02-19 21:12:00,19.6,16.6,29.82,WSW,248,10.0,14.0,88,0.00,CLR,,0.00,WeatherDisplay:10.37,2013-02-20 02:12:00,
2013-02-19 21:13:00,19.6,16.6,29.82,WSW,248,10.0,13.0,88,0.00,CLR,,0.00,WeatherDisplay:10.37,2013-02-20 02:13:00,
2013-02-19 21:14:00,19.7,16.7,29.82,WSW,249,6.0,8.0,88,0.00,CLR,,0.00,WeatherDisplay:10.37,2013-02-20 02:14:00,
2013-02-19 21:15:00,25.3,18.8,29.73,SW,234,16.3,24.2,76,0.00,BKN,,0.43,WeatherDisplay:10.37,2013-02-20 02:15:00,
2013-02-19 21:16:00,19.7,16.7,29.82,WSW,245,13.0,17.0,88,0.00,CLR,,0.00,WeatherDisplay:10.37,2013-02-20 02:16:00,
2013-02-19 21:17:00,19.7,16.7,29.82,WSW,242,13.0,17.0,88,0.00,CLR,,0.00,WeatherDisplay:10.37,2013-02-20 02:17:00,
2013-02-19 21:18:00,19.7,16.7,29.82,WSW,240,10.0,16.0,88,0.00,CLR,,0.00,WeatherDisplay:10.37,2013-02-20 02:18:00,
2013-02-19 21:19:00,19.7,16.7,29.82,WSW,238,10.0,13.0,88,0.00,CLR,,0.00,WeatherDisplay:10.37,2013-02-20 02:19:00,
2013-02-19 21:20:00,25.3,18.8,29.73,SW,230,15.7,25.3,76,0.00,BKN,,0.43,WeatherDisplay:10.37,2013-02-20 02:20:00,
2013-02-19 21:21:00,19.7,16.7,29.82,SW,232,10.0,14.0,88,0.00,CLR,,0.00,WeatherDisplay:10.37,2013-02-20 02:21:00,
2013-02-19 21:22:00,19.7,16.7,29.82,SW,230,12.0,17.0,88,0.00,CLR,,0.00,WeatherDisplay:10.37,2013-02-20 02:22:00,
2013-02-19 21:23:00,19.7,16.7,29.82,SW,227,12.0,20.0,88,0.00,CLR,,0.00,WeatherDisplay:10.37,2013-02-20 02:23:00,
2013-02-19 21:24:00,19.7,16.7,29.83,SW,230,10.0,18.0,88,0.00,CLR,,0.00,WeatherDisplay:10.37,2013-02-20 02:24:00,
2013-02-19 21:25:00,25.3,18.5,29.73,WSW,241,13.4,26.5,75,0.00,BKN,,0.43,WeatherDisplay:10.37,2013-02-20 02:25:00,
2013-02-19 21:26:00,19.7,16.7,29.83,SW,230,10.0,14.0,88,0.00,CLR,,0.00,WeatherDisplay:10.37,2013-02-20 02:26:00,
2013-02-19 21:27:00,19.7,16.7,29.83,SW,233,12.0,19.0,88,0.00,CLR,,0.00,WeatherDisplay:10.37,2013-02-20 02:27:00,
2013-02-19 21:28:00,19.7,16.7,29.83,SW,235,10.0,15.0,88,0.00,CLR,,0.00,WeatherDisplay:10.37,2013-02-20 02:28:00,
2013-02-19 21:29:00,19.7,16.7,29.83,WSW,237,8.0,12.0,88,0.00,CLR,,0.00,WeatherDisplay:10.37,2013-02-20 02:29:00,
2013-02-19 21:30:00,25.2,18.4,29.74,WSW,240,16.3,21.9,75,0.00,BKN,,0.43,WeatherDisplay:10.37,2013-02-20 02:30:00,
2013-02-19 21:31:00,19.7,16.5,29.83,WSW,242,14.0,19.0,87,0.00,CLR,,0.00,WeatherDisplay:10.37,2013-02-20 02:31:00,
2013-02-19 21:32:00,19.7,16.5,29.83,WSW,239,14.0,19.0,87,0.00,CLR,,0.00,WeatherDisplay:10.37,2013-02-20 02:32:00,
2013-02-19 21:33:00,19.7,16.5,29.83,WSW,241,12.0,21.0,87,0.00,CLR,,0.00,WeatherDisplay:10.37,2013-02-20 02:33:00,
2013-02-19 21:34:00,19.7,16.5,29.83,WSW,243,10.0,12.0,87,0.00,CLR,,0.00,WeatherDisplay:10.37,2013-02-20 02:34:00,
2013-02-19 21:35:00,25.1,18.6,29.74,SW,218,9.2,20.7,76,0.00,BKN,,0.43,WeatherDisplay:10.37,2013-02-20 02:35:00,
2013-02-19 21:36:00,19.7,16.5,29.83,WSW,245,9.0,17.0,87,0.00,CLR,,0.00,WeatherDisplay:10.37,2013-02-20 02:36:00,
2013-02-19 21:37:00,19.7,16.5,29.83,WSW,245,12.0,15.0,87,0.00,CLR,,0.00,WeatherDisplay:10.37,2013-02-20 02:37:00,
2013-02-19 21:38:00,19.7,16.5,29.83,WSW,245,12.0,17.0,87,0.00,CLR,,0.00,WeatherDisplay:10.37,2013-02-20 02:38:00,
2013-02-19 21:39:00,19.7,16.5,29.83,WSW,245,9.0,13.0,87,0.00,CLR,,0.00,WeatherDisplay:10.37,2013-02-20 02:39:00,
2013-02-19 21:40:00,25.1,18.9,29.74,SW,231,14.9,23.0,77,0.00,BKN,,0.43,WeatherDisplay:10.37,2013-02-20 02:40:00,
2013-02-19 21:41:00,19.7,16.5,29.83,WSW,245,12.0,13.0,87,0.00,CLR,,0.00,WeatherDisplay:10.37,2013-02-20 02:41:00,
2013-02-19 21:42:00,19.6,16.6,29.83,WSW,248,10.0,13.0,88,0.00,CLR,,0.00,WeatherDisplay:10.37,2013-02-20 02:42:00,
2013-02-19 21:43:00,19.6,16.6,29.83,WSW,250,8.0,12.0,88,0.00,CLR,,0.00,WeatherDisplay:10.37,2013-02-20 02:43:00,
2013-02-19 21:44:00,19.5,16.5,29.83,WSW,248,12.0,16.0,88,0.00,CLR,,0.00,WeatherDisplay:10.37,2013-02-20 02:44:00,
2013-02-19 21:45:00,25.0,18.8,29.73,WSW,246,13.0,18.4,77,0.00,-SN,,0.43,WeatherDisplay:10.37,2013-02-20 02:45:00,
2013-02-19 21:46:00,19.4,16.4,29.83,WSW,250,14.0,19.0,88,0.00,CLR,,0.00,WeatherDisplay:10.37,2013-02-20 02:46:00,
2013-02-19 21:47:00,19.4,16.4,29.83,WSW,252,12.0,16.0,88,0.00,CLR,,0.00,WeatherDisplay:10.37,2013-02-20 02:47:00,
2013-02-19 21:48:00,19.4,16.4,29.83,WSW,249,13.0,19.0,88,0.00,CLR,,0.00,WeatherDisplay:10.37,2013-02-20 02:48:00,
2013-02-19 21:49:00,19.3,16.3,29.83,WSW,249,9.0,16.0,88,0.00,CLR,,0.00,WeatherDisplay:10.37,2013-02-20 02:49:00,
2013-02-19 21:50:00,24.9,18.7,29.74,WSW,240,18.0,23.0,77,0.00,-SN,,0.43,WeatherDisplay:10.37,2013-02-20 02:50:00,
2013-02-19 21:51:00,19.2,16.2,29.83,WSW,255,15.0,23.0,88,0.00,CLR,,0.00,WeatherDisplay:10.37,2013-02-20 02:51:00,
2013-02-19 21:52:00,19.1,16.1,29.83,WSW,254,14.0,16.0,88,0.00,CLR,,0.00,WeatherDisplay:10.37,2013-02-20 02:52:00,
2013-02-19 21:53:00,19.1,16.1,29.83,WSW,253,12.0,17.0,88,0.00,CLR,,0.00,WeatherDisplay:10.37,2013-02-20 02:53:00,
2013-02-19 21:54:00,19.0,16.0,29.83,WSW,255,12.0,15.0,88,0.00,CLR,,0.00,WeatherDisplay:10.37,2013-02-20 02:54:00,
2013-02-19 21:55:00,24.9,18.7,29.74,WSW,248,13.6,21.9,77,0.00,-SN,,0.43,WeatherDisplay:10.37,2013-02-20 02:55:00,
2013-02-19 21:56:00,18.9,15.9,29.84,WSW,254,14.0,18.0,88,0.00,CLR,,0.00,WeatherDisplay:10.37,2013-02-20 02:56:00,
2013-02-19 21:57:00,18.9,15.9,29.84,WSW,254,9.0,12.0,88,0.00,CLR,,0.00,WeatherDisplay:10.37,2013-02-20 02:57:00,
2013-02-19 21:58:00,18.9,15.9,29.84,WSW,257,9.0,10.0,88,0.00,CLR,,0.00,WeatherDisplay:10.37,2013-02-20 02:58:00,
2013-02-19 21:59:00,18.8,15.8,29.84,WSW,258,9.0,12.0,88,0.00,CLR,,0.00,WeatherDisplay:10.37,2013-02-20 02:59:00,
2013-02-19 22:00:00,24.8,18.6,29.73,West,273,12.7,18.4,77,0.00,-SN,,0.43,WeatherDisplay:10.37,2013-02-20 03:00:00,
2013-02-19 22:01:00,18.8,15.8,29.84,WSW,258,13.0,15.0,88,0.00,CLR,,0.00,WeatherDisplay:10.37,2013-02-20 03:01:00,
2013-02-19 22:05:00,24.8,18.6,29.73,SW,229,10.7,15.0,77,0.00,-SN,,0.43,WeatherDisplay:10.37,2013-02-20 03:05:00,
2013-02-19 22:10:00,24.8,18.9,29.74,WSW,245,13.3,17.3,78,0.00,-SN,,0.43,WeatherDisplay:10.37,2013-02-20 03:10:00,
2013-02-19 22:11:00,18.9,15.9,29.84,West,259,9.0,11.0,88,0.00,CLR,,0.00,WeatherDisplay:10.37,2013-02-20 03:11:00,
2013-02-19 22:12:00,18.9,15.9,29.84,West,259,9.0,15.0,88,0.00,CLR,,0.00,WeatherDisplay:10.37,2013-02-20 03:12:00,
2013-02-19 22:13:00,18.9,15.9,29.84,West,260,8.0,11.0,88,0.00,CLR,,0.00,WeatherDisplay:10.37,2013-02-20 03:13:00,
2013-02-19 22:14:00,18.9,15.9,29.84,West,260,5.0,10.0,88,0.00,CLR,,0.00,WeatherDisplay:10.37,2013-02-20 03:14:00,
2013-02-19 22:15:00,24.9,19.0,29.74,WSW,249,8.8,19.6,78,0.00,-SN,,0.43,WeatherDisplay:10.37,2013-02-20 03:15:00,
2013-02-19 22:16:00,19.0,16.0,29.84,WSW,255,7.0,9.0,88,0.00,CLR,,0.00,WeatherDisplay:10.37,2013-02-20 03:16:00,
2013-02-19 22:17:00,19.0,16.0,29.84,WSW,252,7.0,9.0,88,0.00,CLR,,0.00,WeatherDisplay:10.37,2013-02-20 03:17:00,
2013-02-19 22:18:00,19.0,16.0,29.84,WSW,249,9.0,13.0,88,0.00,CLR,,0.00,WeatherDisplay:10.37,2013-02-20 03:18:00,
2013-02-19 22:19:00,19.1,16.1,29.84,WSW,246,10.0,13.0,88,0.00,CLR,,0.00,WeatherDisplay:10.37,2013-02-20 03:19:00,
2013-02-19 22:20:00,25.1,18.9,29.74,West,261,14.4,19.6,77,0.00,-SN,,0.43,WeatherDisplay:10.37,2013-02-20 03:20:00,
2013-02-19 22:21:00,19.2,16.2,29.84,WSW,244,16.0,21.0,88,0.00,CLR,,0.00,WeatherDisplay:10.37,2013-02-20 03:21:00,
2013-02-19 22:22:00,19.2,16.0,29.84,WSW,245,15.0,21.0,87,0.00,CLR,,0.00,WeatherDisplay:10.37,2013-02-20 03:22:00,
2013-02-19 22:23:00,19.2,16.0,29.84,WSW,247,12.0,17.0,87,0.00,CLR,,0.00,WeatherDisplay:10.37,2013-02-20 03:23:00,
2013-02-19 22:24:00,19.3,15.8,29.84,WSW,247,14.0,18.0,86,0.00,CLR,,0.00,WeatherDisplay:10.37,2013-02-20 03:24:00,
2013-02-19 22:25:00,25.1,18.6,29.74,WSW,251,14.2,21.9,76,0.00,-SN,,0.43,WeatherDisplay:10.37,2013-02-20 03:25:00,
2013-02-19 22:26:00,19.3,15.5,29.84,WSW,247,10.0,15.0,85,0.00,CLR,,0.00,WeatherDisplay:10.37,2013-02-20 03:26:00,
2013-02-19 22:27:00,19.3,15.5,29.85,WSW,249,12.0,16.0,85,0.00,CLR,,0.00,WeatherDisplay:10.37,2013-02-20 03:27:00,
2013-02-19 22:28:00,19.3,15.5,29.85,WSW,249,12.0,18.0,85,0.00,CLR,,0.00,WeatherDisplay:10.37,2013-02-20 03:28:00,
2013-02-19 22:29:00,19.3,15.3,29.85,WSW,250,20.0,25.0,84,0.00,CLR,,0.00,WeatherDisplay:10.37,2013-02-20 03:29:00,
2013-02-19 22:30:00,25.2,20.8,29.74,WSW,250,16.3,24.2,83,0.00,-SN,,0.43,WeatherDisplay:10.37,2013-02-20 03:30:00,
2013-02-19 22:31:00,19.3,15.0,29.85,WSW,253,14.0,17.0,83,0.00,CLR,,0.00,WeatherDisplay:10.37,2013-02-20 03:31:00,
2013-02-19 22:32:00,19.3,15.0,29.85,WSW,253,14.0,16.0,83,0.00,CLR,,0.00,WeatherDisplay:10.37,2013-02-20 03:32:00,
2013-02-19 22:33:00,19.3,14.7,29.85,WSW,253,8.0,14.0,82,0.00,CLR,,0.00,WeatherDisplay:10.37,2013-02-20 03:33:00,
2013-02-19 22:34:00,19.3,14.7,29.85,WSW,255,13.0,17.0,82,0.00,CLR,,0.00,WeatherDisplay:10.37,2013-02-20 03:34:00,
2013-02-19 22:35:00,25.0,18.5,29.74,WSW,237,18.5,26.5,76,0.00,-SN,,0.43,WeatherDisplay:10.37,2013-02-20 03:35:00,
2013-02-19 22:36:00,19.3,14.7,29.85,WSW,254,13.0,15.0,82,0.00,CLR,,0.00,WeatherDisplay:10.37,2013-02-20 03:36:00,
2013-02-19 22:37:00,19.3,14.7,29.85,WSW,253,14.0,22.0,82,0.00,CLR,,0.00,WeatherDisplay:10.37,2013-02-20 03:37:00,
2013-02-19 22:38:00,19.3,14.7,29.85,WSW,253,15.0,18.0,82,0.00,CLR,,0.00,WeatherDisplay:10.37,2013-02-20 03:38:00,
2013-02-19 22:39:00,19.3,14.4,29.85,WSW,253,14.0,17.0,81,0.00,CLR,,0.00,WeatherDisplay:10.37,2013-02-20 03:39:00,
2013-02-19 22:40:00,24.9,18.7,29.74,WSW,244,12.4,19.6,77,0.00,-SN,,0.43,WeatherDisplay:10.37,2013-02-20 03:40:00,
2013-02-19 22:41:00,19.3,14.4,29.85,WSW,250,9.0,14.0,81,0.00,CLR,,0.00,WeatherDisplay:10.37,2013-02-20 03:41:00,
2013-02-19 22:42:00,19.3,14.4,29.85,WSW,247,16.0,25.0,81,0.00,CLR,,0.00,WeatherDisplay:10.37,2013-02-20 03:42:00,
2013-02-19 22:43:00,19.3,14.4,29.85,WSW,247,15.0,21.0,81,0.00,CLR,,0.00,WeatherDisplay:10.37,2013-02-20 03:43:00,
2013-02-19 22:44:00,19.3,14.4,29.85,WSW,247,13.0,19.0,81,0.00,CLR,,0.00,WeatherDisplay:10.37,2013-02-20 03:44:00,
2013-02-19 22:45:00,24.9,18.7,29.74,WSW,244,14.5,19.6,77,0.00,-SN,,0.43,WeatherDisplay:10.37,2013-02-20 03:45:00,
2013-02-19 22:46:00,19.3,14.4,29.85,WSW,249,7.0,10.0,81,0.00,CLR,,0.00,WeatherDisplay:10.37,2013-02-20 03:46:00,
2013-02-19 22:47:00,19.4,14.5,29.85,WSW,251,12.0,16.0,81,0.00,CLR,,0.00,WeatherDisplay:10.37,2013-02-20 03:47:00,
2013-02-19 22:48:00,19.4,14.5,29.85,WSW,251,13.0,17.0,81,0.00,CLR,,0.00,WeatherDisplay:10.37,2013-02-20 03:48:00,
2013-02-19 22:49:00,19.4,14.5,29.85,WSW,251,10.0,12.0,81,0.00,CLR,,0.00,WeatherDisplay:10.37,2013-02-20 03:49:00,
2013-02-19 22:50:00,24.9,18.7,29.74,WSW,238,12.0,20.7,77,0.00,-SN,,0.43,WeatherDisplay:10.37,2013-02-20 03:50:00,
2013-02-19 22:51:00,19.4,14.5,29.85,WSW,253,14.0,17.0,81,0.00,CLR,,0.00,WeatherDisplay:10.37,2013-02-20 03:51:00,
2013-02-19 22:52:00,19.4,14.5,29.85,WSW,253,12.0,15.0,81,0.00,CLR,,0.00,WeatherDisplay:10.37,2013-02-20 03:52:00,
2013-02-19 22:53:00,19.4,14.2,29.85,WSW,255,12.0,23.0,80,0.00,CLR,,0.00,WeatherDisplay:10.37,2013-02-20 03:53:00,
2013-02-19 22:54:00,19.3,14.1,29.86,WSW,252,15.0,23.0,80,0.00,CLR,,0.00,WeatherDisplay:10.37,2013-02-20 03:54:00,
2013-02-19 22:55:00,24.9,18.7,29.74,WSW,253,10.3,16.1,77,0.00,-SN,,0.43,WeatherDisplay:10.37,2013-02-20 03:55:00,
2013-02-19 22:56:00,19.4,14.2,29.86,WSW,252,12.0,14.0,80,0.00,CLR,,0.00,WeatherDisplay:10.37,2013-02-20 03:56:00,
2013-02-19 22:57:00,19.4,14.2,29.86,WSW,252,9.0,12.0,80,0.00,CLR,,0.00,WeatherDisplay:10.37,2013-02-20 03:57:00,
2013-02-19 22:58:00,19.3,14.1,29.86,WSW,254,12.0,14.0,80,0.00,CLR,,0.00,WeatherDisplay:10.37,2013-02-20 03:58:00,
2013-02-19 22:59:00,19.3,14.1,29.86,WSW,256,12.0,18.0,80,0.00,CLR,,0.00,WeatherDisplay:10.37,2013-02-20 03:59:00,
2013-02-19 23:00:00,24.9,18.7,29.74,WSW,242,14.2,23.0,77,0.00,-SN,,0.43,WeatherDisplay:10.37,2013-02-20 04:00:00,
2013-02-19 23:01:00,19.3,14.1,29.86,WSW,253,12.0,20.0,80,0.00,CLR,,0.00,WeatherDisplay:10.37,2013-02-20 04:01:00,
2013-02-19 23:05:00,24.6,18.7,29.74,WSW,245,15.7,25.0,78,0.00,-SN,,0.43,WeatherDisplay:10.37,2013-02-20 04:05:00,
2013-02-19 23:10:00,19.4,13.7,29.86,WSW,250,8.0,21.0,78,0.00,CLR,,0.00,WeatherDisplay:10.37,2013-02-20 04:10:00,
2013-02-19 23:11:00,24.3,19.0,29.75,West,265,13.1,21.9,80,0.00,-SN,,0.43,WeatherDisplay:10.37,2013-02-20 04:11:00,
2013-02-19 23:12:00,19.4,13.7,29.86,WSW,250,9.0,11.0,78,0.00,CLR,,0.00,WeatherDisplay:10.37,2013-02-20 04:12:00,
2013-02-19 23:13:00,19.4,13.7,29.86,WSW,247,12.0,17.0,78,0.00,CLR,,0.00,WeatherDisplay:10.37,2013-02-20 04:13:00,
2013-02-19 23:14:00,19.4,13.7,29.86,WSW,247,12.0,17.0,78,0.00,CLR,,0.00,WeatherDisplay:10.37,2013-02-20 04:14:00,
2013-02-19 23:15:00,19.4,13.7,29.86,WSW,247,15.0,18.0,78,0.00,CLR,,0.00,WeatherDisplay:10.37,2013-02-20 04:15:00,
2013-02-19 23:16:00,24.1,19.1,29.74,SW,235,14.9,23.0,81,0.00,-SN,,0.43,WeatherDisplay:10.37,2013-02-20 04:16:00,
2013-02-19 23:17:00,19.5,13.8,29.86,WSW,252,9.0,13.0,78,0.00,CLR,,0.00,WeatherDisplay:10.37,2013-02-20 04:17:00,
2013-02-19 23:18:00,19.5,13.8,29.86,WSW,249,8.0,14.0,78,0.00,CLR,,0.00,WeatherDisplay:10.37,2013-02-20 04:18:00,
2013-02-19 23:19:00,19.5,13.8,29.87,WSW,247,8.0,17.0,78,0.00,CLR,,0.00,WeatherDisplay:10.37,2013-02-20 04:19:00,
2013-02-19 23:20:00,19.5,13.8,29.87,WSW,246,10.0,16.0,78,0.00,CLR,,0.00,WeatherDisplay:10.37,2013-02-20 04:20:00,
2013-02-19 23:21:00,24.0,19.3,29.75,WSW,238,12.6,16.1,82,0.00,-SN,,0.43,WeatherDisplay:10.37,2013-02-20 04:21:00,
2013-02-19 23:22:00,19.5,13.5,29.87,WSW,250,12.0,14.0,77,0.00,CLR,,0.00,WeatherDisplay:10.37,2013-02-20 04:22:00,
2013-02-19 23:23:00,19.5,13.5,29.87,WSW,253,10.0,14.0,77,0.00,CLR,,0.00,WeatherDisplay:10.37,2013-02-20 04:23:00,
2013-02-19 23:24:00,19.5,13.5,29.87,WSW,253,9.0,14.0,77,0.00,CLR,,0.00,WeatherDisplay:10.37,2013-02-20 04:24:00,
2013-02-19 23:25:00,19.5,13.5,29.87,WSW,251,10.0,17.0,77,0.00,CLR,,0.00,WeatherDisplay:10.37,2013-02-20 04:25:00,
2013-02-19 23:26:00,24.0,19.3,29.75,SSW,211,10.7,25.3,82,0.00,-SN,,0.43,WeatherDisplay:10.37,2013-02-20 04:26:00,
2013-02-19 23:27:00,19.5,13.5,29.87,WSW,249,13.0,18.0,77,0.00,CLR,,0.00,WeatherDisplay:10.37,2013-02-20 04:27:00,
2013-02-19 23:28:00,19.4,13.4,29.87,WSW,249,14.0,17.0,77,0.00,CLR,,0.00,WeatherDisplay:10.37,2013-02-20 04:28:00,
2013-02-19 23:29:00,19.4,13.4,29.87,WSW,250,13.0,19.0,77,0.00,CLR,,0.00,WeatherDisplay:10.37,2013-02-20 04:29:00,
2013-02-19 23:30:00,19.4,13.4,29.87,WSW,250,16.0,20.0,77,0.00,CLR,,0.00,WeatherDisplay:10.37,2013-02-20 04:30:00,
2013-02-19 23:31:00,23.9,19.2,29.75,West,272,9.2,12.7,82,0.00,-SN,,0.43,WeatherDisplay:10.37,2013-02-20 04:31:00,
2013-02-19 23:32:00,19.3,13.0,29.87,WSW,246,10.0,14.0,76,0.00,CLR,,0.00,WeatherDisplay:10.37,2013-02-20 04:32:00,
2013-02-19 23:33:00,19.3,13.3,29.87,WSW,246,9.0,13.0,77,0.00,CLR,,0.00,WeatherDisplay:10.37,2013-02-20 04:33:00,
2013-02-19 23:34:00,19.3,13.3,29.87,WSW,244,10.0,14.0,77,0.00,CLR,,0.00,WeatherDisplay:10.37,2013-02-20 04:34:00,
2013-02-19 23:35:00,19.3,13.3,29.87,WSW,246,14.0,19.0,77,0.00,CLR,,0.00,WeatherDisplay:10.37,2013-02-20 04:35:00,
2013-02-19 23:36:00,23.9,19.2,29.74,SW,234,8.9,17.3,82,0.00,-SN,,0.43,WeatherDisplay:10.37,2013-02-20 04:36:00,
2013-02-19 23:37:00,19.3,13.3,29.87,WSW,244,12.0,16.0,77,0.00,CLR,,0.00,WeatherDisplay:10.37,2013-02-20 04:37:00,
2013-02-19 23:38:00,19.3,13.3,29.87,WSW,244,12.0,21.0,77,0.00,CLR,,0.00,WeatherDisplay:10.37,2013-02-20 04:38:00,
2013-02-19 23:39:00,19.3,13.3,29.87,WSW,244,13.0,18.0,77,0.00,CLR,,0.00,WeatherDisplay:10.37,2013-02-20 04:39:00,
2013-02-19 23:40:00,19.2,13.2,29.87,WSW,243,12.0,16.0,77,0.00,CLR,,0.00,WeatherDisplay:10.37,2013-02-20 04:40:00,
2013-02-19 23:41:00,23.8,19.1,29.74,West,271,9.4,13.8,82,0.00,-SN,,0.43,WeatherDisplay:10.37,2013-02-20 04:41:00,
2013-02-19 23:42:00,19.2,13.2,29.87,WSW,246,12.0,14.0,77,0.00,CLR,,0.00,WeatherDisplay:10.37,2013-02-20 04:42:00,
2013-02-19 23:43:00,19.2,13.2,29.87,WSW,246,13.0,18.0,77,0.00,CLR,,0.00,WeatherDisplay:10.37,2013-02-20 04:43:00,
2013-02-19 23:44:00,19.2,13.2,29.87,WSW,248,12.0,15.0,77,0.00,CLR,,0.00,WeatherDisplay:10.37,2013-02-20 04:44:00,
2013-02-19 23:45:00,19.2,13.2,29.87,WSW,248,13.0,18.0,77,0.00,CLR,,0.00,WeatherDisplay:10.37,2013-02-20 04:45:00,
2013-02-19 23:46:00,23.8,19.1,29.74,WSW,241,12.1,19.6,82,0.00,-SN,,0.43,WeatherDisplay:10.37,2013-02-20 04:46:00,
2013-02-19 23:47:00,19.2,13.2,29.87,WSW,249,12.0,16.0,77,0.00,CLR,,0.00,WeatherDisplay:10.37,2013-02-20 04:47:00,
2013-02-19 23:48:00,19.2,13.2,29.87,WSW,249,9.0,11.0,77,0.00,CLR,,0.00,WeatherDisplay:10.37,2013-02-20 04:48:00,
2013-02-19 23:49:00,19.2,13.2,29.88,WSW,251,10.0,15.0,77,0.00,CLR,,0.00,WeatherDisplay:10.37,2013-02-20 04:49:00,
2013-02-19 23:50:00,19.2,13.2,29.87,WSW,251,13.0,17.0,77,0.00,CLR,,0.00,WeatherDisplay:10.37,2013-02-20 04:50:00,
2013-02-19 23:51:00,23.7,19.0,29.75,SW,222,13.7,16.1,82,0.00,-SN,,0.43,WeatherDisplay:10.37,2013-02-20 04:51:00,
2013-02-19 23:52:00,19.2,13.2,29.88,WSW,248,15.0,20.0,77,0.00,CLR,,0.00,WeatherDisplay:10.37,2013-02-20 04:52:00,
2013-02-19 23:53:00,19.1,13.1,29.88,WSW,250,15.0,19.0,77,0.00,CLR,,0.00,WeatherDisplay:10.37,2013-02-20 04:53:00,
2013-02-19 23:54:00,19.1,13.1,29.88,WSW,250,15.0,22.0,77,0.00,CLR,,0.00,WeatherDisplay:10.37,2013-02-20 04:54:00,
2013-02-19 23:55:00,19.1,13.1,29.88,WSW,250,12.0,19.0,77,0.00,CLR,,0.00,WeatherDisplay:10.37,2013-02-20 04:55:00,
2013-02-19 23:56:00,23.6,18.9,29.75,WSW,241,12.5,13.8,82,0.00,-SN,,0.43,WeatherDisplay:10.37,2013-02-20 04:56:00,
2013-02-19 23:57:00,19.1,13.1,29.88,WSW,252,12.0,21.0,77,0.00,CLR,,0.00,WeatherDisplay:10.37,2013-02-20 04:57:00,
2013-02-19 23:58:00,19.1,13.1,29.88,WSW,252,16.0,21.0,77,0.00,CLR,,0.00,WeatherDisplay:10.37,2013-02-20 04:58:00,
2013-02-19 23:59:00,19.2,13.2,29.88,WSW,248,13.0,20.0,77,0.00,CLR,,0.00,WeatherDisplay:10.37,2013-02-20 04:59:00,